STARLINK-5143 (54089 NORAD) Tracking and Keplerian Element Data

This shows tracking and keplerian element data for the satellite.

Feedback or suggestion? Click here.




ElementValue
Catalog54089
NameSTARLINK-5143
Epoch Orbit549
Epoch Day325.33334491
Epoch Year2022
RAAN350.8863
Inclination53.2144
Eccentricity0.0004309
Argument of Perigee358.326
Mean Anonmoly351.3004
Mean Motion15.7317137
Decay Rate4.642E-05
L11 54089U 22136AQ 22325.33334491 .00004642 00000+0 37538-4 0 9999
L22 54089 53.2144 350.8863 0004309 358.3260 351.3004 15.73171370 5492



Live tracking and technical data element details for STARLINK-5143 (NORAD 54089). STARLINK-5143 can be tracked NOW for your location showing map with azimuth and elevation plus other details from your city location.







IsCatalogInMostPopularTable: catalog: 54089, numindb: 1
Update: records affected: 1



GetName: 54089 STARLINK-5143

Hit Count: updated at: Fri, 09 Dec 2022 18:25:35 GMT